| time (UTC) | temp C | wind direction | speed KPH | gust KPH | rain 1hr cm | rain 24hr cm | rain mn cm | humidity % | barometer mb |
| 20260504035518 | 28 | 158 | 4.8 | 22.5 | 0.00 | 0.00 | 0.00 | 22 | 1007.3 |
| 20260504035017 | 28 | 180 | 4.8 | 22.5 | 0.00 | 0.00 | 0.00 | 22 | 1007.3 |
| 20260504034516 | 28 | 248 | 4.8 | 20.9 | 0.00 | 0.00 | 0.00 | 20 | 1007.3 |
| 20260504034016 | 28 | 180 | 3.2 | 17.7 | 0.00 | 0.00 | 0.00 | 20 | 1006.9 |
| 20260504033517 | 28 | 248 | 4.8 | 20.9 | 0.00 | 0.00 | 0.00 | 20 | 1006.9 |
| 20260504033018 | 29 | 248 | 4.8 | 25.7 | 0.00 | 0.00 | 0.00 | 20 | 1006.5 |
| 20260504032518 | 29 | 248 | 4.8 | 25.7 | 0.00 | 0.00 | 0.00 | 20 | 1006.5 |
| 20260504032017 | 29 | 203 | 4.8 | 25.7 | 0.00 | 0.00 | 0.00 | 20 | 1006.5 |
| 20260504031517 | 29 | 225 | 6.4 | 22.5 | 0.00 | 0.00 | 0.00 | 20 | 1006.2 |
| 20260504031016 | 29 | 203 | 4.8 | 22.5 | 0.00 | 0.00 | 0.00 | 19 | 1006.2 |
| 20260504030515 | 30 | 180 | 4.8 | 22.5 | 0.00 | 0.00 | 0.00 | 19 | 1006.2 |
| 20260504030015 | 30 | 158 | 3.2 | 20.9 | 0.00 | 0.00 | 0.00 | 19 | 1006.2 |
| 20260504025515 | 30 | 203 | 4.8 | 20.9 | 0.00 | 0.00 | 0.00 | 17 | 1006.2 |
| 20260504025016 | 30 | 158 | 4.8 | 20.9 | 0.00 | 0.00 | 0.00 | 17 | 1006.2 |
| 20260504024516 | 30 | 180 | 4.8 | 20.9 | 0.00 | 0.00 | 0.00 | 17 | 1005.9 |
| 20260504024247 | 30 | 180 | 4.8 | 20.9 | 0.00 | 0.00 | 0.00 | 17 | 1005.9 |
| 20260504023747 | 30 | 203 | 3.2 | 24.1 | 0.00 | 0.00 | 0.00 | 17 | 1005.5 |
| 20260504023016 | 30 | 158 | 4.8 | 24.1 | 0.00 | 0.00 | 0.00 | 17 | 1005.5 |
| 20260504022514 | 31 | 203 | 3.2 | 27.4 | 0.00 | 0.00 | 0.00 | 17 | 1005.5 |
| 20260504022015 | 31 | 225 | 6.4 | 27.4 | 0.00 | 0.00 | 0.00 | 17 | 1005.2 |
| 20260504021513 | 31 | 203 | 4.8 | 20.9 | 0.00 | 0.00 | 0.00 | 17 | 1005.2 |
| 20260504021014 | 31 | 158 | 6.4 | 24.1 | 0.00 | 0.00 | 0.00 | 17 | 1005.2 |
| 20260504020514 | 31 | 158 | 4.8 | 27.4 | 0.00 | 0.00 | 0.00 | 17 | 1005.2 |
| 20260504020019 | 32 | 180 | 6.4 | 27.4 | 0.00 | 0.00 | 0.00 | 15 | 1004.8 |
| 20260504020015 | 31 | 180 | 6.4 | 27.4 | 0.00 | 0.00 | 0.00 | 15 | 1004.8 |
| 20260504015014 | 32 | 203 | 4.8 | 22.5 | 0.00 | 0.00 | 0.00 | 15 | 1004.8 |
| 20260504014515 | 32 | 225 | 4.8 | 19.3 | 0.00 | 0.00 | 0.00 | 15 | 1004.8 |
| 20260504014013 | 32 | 158 | 3.2 | 24.1 | 0.00 | 0.00 | 0.00 | 15 | 1004.5 |
| 20260504013512 | 32 | 180 | 4.8 | 24.1 | 0.00 | 0.00 | 0.00 | 15 | 1004.5 |
| 20260504013013 | 32 | 203 | 3.2 | 12.9 | 0.00 | 0.00 | 0.00 | 15 | 1004.5 |
| 20260504012512 | 33 | 248 | 3.2 | 20.9 | 0.00 | 0.00 | 0.00 | 15 | 1004.5 |
| 20260504012013 | 33 | 203 | 4.8 | 20.9 | 0.00 | 0.00 | 0.00 | 13 | 1004.8 |
| 20260504011513 | 33 | 180 | 4.8 | 20.9 | 0.00 | 0.00 | 0.00 | 13 | 1004.5 |
| 20260504011013 | 33 | 225 | 4.8 | 19.3 | 0.00 | 0.00 | 0.00 | 15 | 1004.5 |
| 20260504010743 | 33 | 248 | 4.8 | 19.3 | 0.00 | 0.00 | 0.00 | 15 | 1004.5 |
| 20260504010012 | 33 | 180 | 4.8 | 20.9 | 0.00 | 0.00 | 0.00 | 13 | 1004.5 |
| 20260504005513 | 33 | 180 | 4.8 | 20.9 | 0.00 | 0.00 | 0.00 | 13 | 1004.5 |
| 20260504005011 | 34 | 158 | 3.2 | 19.3 | 0.00 | 0.00 | 0.00 | 15 | 1004.5 |
| 20260504004511 | 34 | 180 | 4.8 | 20.9 | 0.00 | 0.00 | 0.00 | 13 | 1004.5 |
| 20260504004011 | 34 | 203 | 6.4 | 20.9 | 0.00 | 0.00 | 0.00 | 13 | 1004.5 |
| 20260504003512 | 34 | 135 | 4.8 | 24.1 | 0.00 | 0.00 | 0.00 | 13 | 1004.5 |
| 20260504003013 | 34 | 158 | 6.4 | 24.1 | 0.00 | 0.00 | 0.00 | 13 | 1004.5 |
| 20260504002512 | 35 | 203 | 4.8 | 22.5 | 0.00 | 0.00 | 0.00 | 13 | 1004.5 |
| 20260504001954 | 35 | 203 | 3.2 | 20.9 | 0.00 | 0.00 | 0.00 | 12 | 1004.5 |
| 20260504001724 | 35 | 180 | 4.8 | 20.9 | 0.00 | 0.00 | 0.00 | 13 | 1004.5 |
| 20260504000952 | 35 | 203 | 4.8 | 22.5 | 0.00 | 0.00 | 0.00 | 13 | 1004.5 |
| 20260504000452 | 35 | 180 | 4.8 | 22.5 | 0.00 | 0.00 | 0.00 | 15 | 1004.1 |
| 20260503235952 | 35 | 158 | 4.8 | 19.3 | 0.00 | 0.00 | 0.00 | 13 | 1004.5 |
| 20260503235452 | 35 | 248 | 4.8 | 24.1 | 0.00 | 0.00 | 0.00 | 13 | 1004.5 |
| 20260503234953 | 35 | 293 | 4.8 | 24.1 | 0.00 | 0.00 | 0.00 | 13 | 1004.5 |
| 20260503234453 | 35 | 180 | 3.2 | 17.7 | 0.00 | 0.00 | 0.00 | 13 | 1004.1 |
| 20260503233953 | 35 | 203 | 3.2 | 12.9 | 0.00 | 0.00 | 0.00 | 15 | 1004.5 |
| 20260503233440 | 35 | 158 | 3.2 | 12.9 | 0.00 | 0.00 | 0.00 | 13 | 1004.1 |
| 20260503232935 | 35 | 203 | 3.2 | 14.5 | 0.00 | 0.00 | 0.00 | 13 | 1004.5 |
| 20260503232704 | 35 | 180 | 3.2 | 17.7 | 0.00 | 0.00 | 0.00 | 13 | 1004.5 |
| 20260503231932 | 35 | 203 | 3.2 | 17.7 | 0.00 | 0.00 | 0.00 | 13 | 1004.5 |
| 20260503231433 | 35 | 225 | 3.2 | 12.9 | 0.00 | 0.00 | 0.00 | 13 | 1004.8 |
| 20260503230933 | 35 | 225 | 3.2 | 12.9 | 0.00 | 0.00 | 0.00 | 15 | 1004.5 |
| 20260503230433 | 35 | 180 | 1.6 | 12.9 | 0.00 | 0.00 | 0.00 | 15 | 1004.8 |
| 20260503225934 | 35 | 180 | 1.6 | 12.9 | 0.00 | 0.00 | 0.00 | 15 | 1004.8 |
| 20260503225704 | 35 | 23 | 1.6 | 9.7 | 0.00 | 0.00 | 0.00 | 15 | 1004.8 |
| 20260503225204 | 35 | 45 | 1.6 | 14.5 | 0.00 | 0.00 | 0.00 | 15 | 1004.8 |
| 20260503224433 | 35 | 203 | 3.2 | 14.5 | 0.00 | 0.00 | 0.00 | 15 | 1005.2 |
| 20260503223932 | 35 | 248 | 1.6 | 12.9 | 0.00 | 0.00 | 0.00 | 15 | 1005.2 |
| 20260503223432 | 35 | 45 | 3.2 | 16.1 | 0.00 | 0.00 | 0.00 | 15 | 1005.5 |
| 20260503222932 | 35 | 203 | 3.2 | 17.7 | 0.00 | 0.00 | 0.00 | 15 | 1005.2 |
| 20260503222703 | 35 | 180 | 3.2 | 17.7 | 0.00 | 0.00 | 0.00 | 15 | 1005.5 |
| 20260503221933 | 35 | 270 | 1.6 | 25.7 | 0.00 | 0.00 | 0.00 | 15 | 1005.5 |
| 20260503221433 | 35 | 203 | 3.2 | 25.7 | 0.00 | 0.00 | 0.00 | 15 | 1005.9 |
| 20260503220933 | 35 | 180 | 3.2 | 16.1 | 0.00 | 0.00 | 0.00 | 15 | 1005.9 |
| 20260503220432 | 35 | 270 | 3.2 | 16.1 | 0.00 | 0.00 | 0.00 | 15 | 1005.9 |
| 20260503215931 | 35 | 203 | 3.2 | 16.1 | 0.00 | 0.00 | 0.00 | 15 | 1005.9 |
| 20260503215431 | 35 | 180 | 3.2 | 19.3 | 0.00 | 0.00 | 0.00 | 15 | 1005.9 |
| 20260503214931 | 35 | 180 | 4.8 | 19.3 | 0.00 | 0.00 | 0.00 | 15 | 1006.2 |
| 20260503214431 | 35 | 248 | 3.2 | 17.7 | 0.00 | 0.00 | 0.00 | 15 | 1006.2 |
| 20260503213932 | 35 | 180 | 3.2 | 20.9 | 0.00 | 0.00 | 0.00 | 15 | 1006.2 |
| 20260503213432 | 35 | 180 | 3.2 | 20.9 | 0.00 | 0.00 | 0.00 | 15 | 1006.5 |
| 20260503212932 | 35 | 203 | 4.8 | 20.9 | 0.00 | 0.00 | 0.00 | 15 | 1006.5 |
| 20260503212432 | 35 | 203 | 4.8 | 20.9 | 0.00 | 0.00 | 0.00 | 15 | 1006.9 |
| 20260503211913 | 35 | 270 | 3.2 | 16.1 | 0.00 | 0.00 | 0.00 | 17 | 1006.9 |
| 20260503211412 | 35 | 158 | 3.2 | 17.7 | 0.00 | 0.00 | 0.00 | 17 | 1006.9 |
| 20260503210912 | 35 | 158 | 3.2 | 17.7 | 0.00 | 0.00 | 0.00 | 17 | 1006.9 |
| 20260503210417 | 34 | 203 | 3.2 | 19.3 | 0.00 | 0.00 | 0.00 | 17 | 1006.9 |
| 20260503210413 | 35 | 180 | 3.2 | 16.1 | 0.00 | 0.00 | 0.00 | 17 | 1006.9 |
| 20260503205413 | 34 | 158 | 4.8 | 19.3 | 0.00 | 0.00 | 0.00 | 17 | 1007.3 |
| 20260503204913 | 34 | 180 | 3.2 | 14.5 | 0.00 | 0.00 | 0.00 | 17 | 1007.3 |
| 20260503204413 | 34 | 68 | 3.2 | 20.9 | 0.00 | 0.00 | 0.00 | 15 | 1007.6 |
| 20260503203913 | 34 | 180 | 3.2 | 20.9 | 0.00 | 0.00 | 0.00 | 17 | 1007.6 |
| 20260503203412 | 34 | 135 | 3.2 | 12.9 | 0.00 | 0.00 | 0.00 | 17 | 1007.6 |
| 20260503202911 | 34 | 158 | 3.2 | 17.7 | 0.00 | 0.00 | 0.00 | 17 | 1007.6 |
| 20260503202411 | 34 | 225 | 3.2 | 17.7 | 0.00 | 0.00 | 0.00 | 17 | 1008.0 |
| 20260503201912 | 35 | 180 | 3.2 | 12.9 | 0.00 | 0.00 | 0.00 | 17 | 1008.0 |
| 20260503201411 | 35 | 135 | 3.2 | 14.5 | 0.00 | 0.00 | 0.00 | 17 | 1008.0 |
| 20260503200911 | 34 | 180 | 3.2 | 14.5 | 0.00 | 0.00 | 0.00 | 17 | 1008.0 |
| 20260503200412 | 34 | 203 | 3.2 | 14.5 | 0.00 | 0.00 | 0.00 | 17 | 1008.3 |
| 20260503195912 | 34 | 248 | 3.2 | 14.5 | 0.00 | 0.00 | 0.00 | 17 | 1008.0 |
| 20260503195411 | 34 | 135 | 3.2 | 16.1 | 0.00 | 0.00 | 0.00 | 17 | 1008.3 |
| 20260503194911 | 34 | 158 | 3.2 | 19.3 | 0.00 | 0.00 | 0.00 | 17 | 1008.3 |
| 20260503194410 | 34 | 180 | 3.2 | 19.3 | 0.00 | 0.00 | 0.00 | 19 | 1008.3 |
| 20260503193910 | 34 | 203 | 3.2 | 14.5 | 0.00 | 0.00 | 0.00 | 17 | 1008.0 |
| 20260503193410 | 34 | 248 | 1.6 | 9.7 | 0.00 | 0.00 | 0.00 | 19 | 1008.3 |
| 20260503192910 | 33 | 158 | 1.6 | 14.5 | 0.00 | 0.00 | 0.00 | 19 | 1008.7 |
| 20260503192411 | 33 | 158 | 3.2 | 19.3 | 0.00 | 0.00 | 0.00 | 17 | 1008.7 |
| 20260503192141 | 33 | 135 | 3.2 | 19.3 | 0.00 | 0.00 | 0.00 | 17 | 1008.7 |
| 20260503191411 | 33 | 203 | 3.2 | 16.1 | 0.00 | 0.00 | 0.00 | 20 | 1008.7 |
| 20260503190911 | 33 | 203 | 1.6 | 9.7 | 0.00 | 0.00 | 0.00 | 22 | 1008.7 |
| 20260503190410 | 33 | 248 | 1.6 | 9.7 | 0.00 | 0.00 | 0.00 | 22 | 1009.0 |
| 20260503185910 | 32 | 338 | 1.6 | 9.7 | 0.00 | 0.00 | 0.00 | 24 | 1008.7 |
| 20260503185409 | 32 | 270 | 1.6 | 9.7 | 0.00 | 0.00 | 0.00 | 22 | 1009.0 |
| 20260503184910 | 32 | 180 | 1.6 | 9.7 | 0.00 | 0.00 | 0.00 | 22 | 1009.0 |
| 20260503184409 | 32 | 90 | 1.6 | 9.7 | 0.00 | 0.00 | 0.00 | 22 | 1009.0 |
| 20260503183912 | 32 | 45 | 0.0 | 6.4 | 0.00 | 0.00 | 0.00 | 24 | 1009.0 |
| 20260503183411 | 32 | 0 | 0.0 | 8.0 | 0.00 | 0.00 | 0.00 | 24 | 1009.0 |
| 20260503182912 | 32 | 293 | 1.6 | 14.5 | 0.00 | 0.00 | 0.00 | 22 | 1009.3 |
| 20260503182411 | 32 | 90 | 3.2 | 14.5 | 0.00 | 0.00 | 0.00 | 22 | 1009.7 |
| 20260503181910 | 32 | 203 | 1.6 | 9.7 | 0.00 | 0.00 | 0.00 | 24 | 1009.3 |
| 20260503181409 | 32 | 338 | 1.6 | 9.7 | 0.00 | 0.00 | 0.00 | 22 | 1009.3 |
| 20260503180910 | 32 | 270 | 1.6 | 14.5 | 0.00 | 0.00 | 0.00 | 24 | 1009.7 |
| 20260503180409 | 31 | 203 | 1.6 | 14.5 | 0.00 | 0.00 | 0.00 | 24 | 1010.0 |
| 20260503175909 | 31 | 248 | 1.6 | 11.3 | 0.00 | 0.00 | 0.00 | 24 | 1009.7 |
| 20260503175411 | 31 | 0 | 1.6 | 11.3 | 0.00 | 0.00 | 0.00 | 25 | 1010.0 |
| 20260503174911 | 31 | 315 | 1.6 | 9.7 | 0.00 | 0.00 | 0.00 | 24 | 1009.7 |
| 20260503174411 | 31 | 225 | 1.6 | 11.3 | 0.00 | 0.00 | 0.00 | 25 | 1010.0 |
| 20260503173911 | 31 | 158 | 1.6 | 12.9 | 0.00 | 0.00 | 0.00 | 24 | 1010.0 |
| 20260503173410 | 30 | 225 | 1.6 | 12.9 | 0.00 | 0.00 | 0.00 | 25 | 1010.0 |
| 20260503172909 | 30 | 293 | 1.6 | 8.0 | 0.00 | 0.00 | 0.00 | 24 | 1010.0 |
| 20260503172409 | 30 | 90 | 1.6 | 11.3 | 0.00 | 0.00 | 0.00 | 24 | 1010.0 |
| 20260503171909 | 30 | 293 | 1.6 | 11.3 | 0.00 | 0.00 | 0.00 | 25 | 1009.7 |
| 20260503171409 | 30 | 203 | 1.6 | 9.7 | 0.00 | 0.00 | 0.00 | 25 | 1010.0 |
| 20260503170910 | 30 | 180 | 1.6 | 9.7 | 0.00 | 0.00 | 0.00 | 25 | 1010.0 |
| 20260503170410 | 30 | 203 | 1.6 | 11.3 | 0.00 | 0.00 | 0.00 | 25 | 1010.0 |
| 20260503150850 | 26 | 293 | 0.0 | 6.4 | 0.00 | 0.00 | 0.00 | 31 | 1010.5 |
| 20260503150350 | 26 | 23 | 0.0 | 6.4 | 0.00 | 0.00 | 0.00 | 31 | 1010.5 |
| 20260503131351 | 24 | 203 | 0.0 | 6.4 | 0.00 | 0.00 | 0.00 | 32 | 1009.7 |
| 20260503130852 | 24 | 180 | 0.0 | 3.2 | 0.00 | 0.00 | 0.00 | 32 | 1010.0 |
| 20260503130351 | 24 | 270 | 0.0 | 4.8 | 0.00 | 0.00 | 0.00 | 32 | 1009.7 |
| 20260503110350 | 24 | 315 | 0.0 | 0.0 | 0.00 | 0.00 | 0.00 | 31 | 1009.3 |
| 20260503090351 | 24 | 23 | 0.0 | 4.8 | 0.00 | 0.00 | 0.00 | 30 | 1009.0 |
| 20260503081350 | 25 | 45 | 0.0 | 3.2 | 0.00 | 0.00 | 0.00 | 27 | 1009.3 |
| 20260503080850 | 25 | 270 | 0.0 | 3.2 | 0.00 | 0.00 | 0.00 | 27 | 1009.3 |
| 20260503080350 | 25 | 45 | 0.0 | 3.2 | 0.00 | 0.00 | 0.00 | 27 | 1009.3 |
| 20260503072850 | 25 | 248 | 0.0 | 1.6 | 0.00 | 0.00 | 0.00 | 27 | 1009.3 |
| 20260503072350 | 25 | 45 | 0.0 | 0.0 | 0.00 | 0.00 | 0.00 | 29 | 1009.3 |
| 20260503071850 | 25 | 45 | 0.0 | 0.0 | 0.00 | 0.00 | 0.00 | 29 | 1009.3 |
| 20260503071349 | 25 | 45 | 0.0 | 0.0 | 0.00 | 0.00 | 0.00 | 27 | 1009.3 |
| 20260503070850 | 25 | 45 | 0.0 | 0.0 | 0.00 | 0.00 | 0.00 | 27 | 1009.3 |
| 20260503070350 | 25 | 0 | 0.0 | 0.0 | 0.00 | 0.00 | 0.00 | 27 | 1009.0 |
| 20260503070123 | 25 | 45 | 0.0 | 0.0 | 0.00 | 0.00 | 0.00 | 27 | 1009.3 |
| 20260503060127 | 26 | 203 | 0.0 | 0.0 | 0.00 | 0.00 | 0.00 | 25 | 1009.0 |
| 20260503054349 | 26 | 315 | 0.0 | 0.0 | 0.00 | 0.00 | 0.00 | 24 | 1009.0 |
| 20260503053849 | 26 | 293 | 0.0 | 1.6 | 0.00 | 0.00 | 0.00 | 24 | 1009.0 |
| 20260503053350 | 26 | 45 | 0.0 | 1.6 | 0.00 | 0.00 | 0.00 | 24 | 1009.0 |
| 20260503052851 | 26 | 0 | 0.0 | 1.6 | 0.00 | 0.00 | 0.00 | 24 | 1009.0 |
| 20260503052350 | 26 | 180 | 0.0 | 3.2 | 0.00 | 0.00 | 0.00 | 25 | 1009.0 |
| 20260503051851 | 26 | 293 | 0.0 | 3.2 | 0.00 | 0.00 | 0.00 | 24 | 1009.0 |
| 20260503051351 | 26 | 0 | 0.0 | 0.0 | 0.00 | 0.00 | 0.00 | 25 | 1009.0 |
| 20260503050850 | 26 | 45 | 0.0 | 0.0 | 0.00 | 0.00 | 0.00 | 27 | 1009.0 |
| 20260503050620 | 26 | 45 | 0.0 | 0.0 | 0.00 | 0.00 | 0.00 | 25 | 1008.7 |
| 20260503050120 | 26 | 23 | 0.0 | 0.0 | 0.00 | 0.00 | 0.00 | 27 | 1008.7 |
| 20260503045349 | 26 | 135 | 0.0 | 0.0 | 0.00 | 0.00 | 0.00 | 25 | 1008.7 |
| 20260503044850 | 26 | 23 | 0.0 | 0.0 | 0.00 | 0.00 | 0.00 | 27 | 1008.7 |
| 20260503044351 | 26 | 45 | 0.0 | 0.0 | 0.00 | 0.00 | 0.00 | 27 | 1008.7 |
| 20260503044121 | 26 | 45 | 0.0 | 0.0 | 0.00 | 0.00 | 0.00 | 25 | 1008.3 |
| 20260503043350 | 27 | 45 | 0.0 | 0.0 | 0.00 | 0.00 | 0.00 | 25 | 1008.3 |
| 20260503042851 | 27 | 45 | 0.0 | 0.0 | 0.00 | 0.00 | 0.00 | 25 | 1008.7 |
| 20260503042350 | 27 | 23 | 0.0 | 0.0 | 0.00 | 0.00 | 0.00 | 25 | 1008.7 |
| 20260503042121 | 27 | 23 | 0.0 | 0.0 | 0.00 | 0.00 | 0.00 | 25 | 1008.7 |
| 20260503041350 | 27 | 23 | 0.0 | 0.0 | 0.00 | 0.00 | 0.00 | 25 | 1008.3 |
| 20260503040850 | 27 | 23 | 0.0 | 0.0 | 0.00 | 0.00 | 0.00 | 25 | 1008.3 |
| 20260503040351 | 27 | 23 | 0.0 | 0.0 | 0.00 | 0.00 | 0.00 | 25 | 1008.3 |